DW9177 Weather Reports


Display with metric or nautical units.
time (UTC)temp
F
wind
direction
speed
MPH
gust
MPH
rain 1hr
in
rain 24hr
in
rain mn
in
humidity
%
barometer
mb
20260904183013 92 101 2.0 6.0 0.00 0.00 0.00 45 1009.3
20260904181513 91 107 4.0 8.0 0.00 0.00 0.00 47 1009.6
20260904180011 90 127 0.0 6.0 0.00 0.00 0.00 49 1009.8
20260904174514 89 92 0.0 5.0 0.00 0.00 0.00 52 1009.9
20260904173003 89 152 0.0 5.0 0.00 0.00 0.00 51 1010.1
20260904171502 89 141 0.0 3.0 0.00 0.00 0.00 52 1010.2
20260904170107 88 132 0.0 2.0 0.00 0.00 0.00 54 1010.4
20260904164600 88 126 0.0 4.0 0.00 0.00 0.00 54 1010.3
20260904163054 87 143 1.0 4.0 0.00 0.00 0.00 55 1010.2
20260904161552 86 158 1.0 3.0 0.00 0.00 0.00 56 1010.2
20260904160050 86 104 0.0 3.0 0.00 0.00 0.00 58 1010.2
20260904154548 84 130 1.0 5.0 0.00 0.00 0.00 60 1010.2
20260904153055 83 130 0.0 6.0 0.00 0.00 0.00 62 1010.2
20260904151547 82 124 1.0 5.0 0.00 0.00 0.00 63 1010.2
20260904150050 82 124 1.0 5.0 0.00 0.00 0.00 64 1010.2
20260904144545 82 129 0.0 3.0 0.00 0.00 0.00 64 1010.2
20260904143038 80 125 1.0 3.0 0.00 0.00 0.00 66 1010.2
20260904141538 79 120 0.0 1.0 0.00 0.00 0.00 69 1010.0
20260904140034 77 104 1.0 4.0 0.00 0.00 0.00 72 1009.8
20260904134533 76 105 1.0 4.0 0.00 0.00 0.00 73 1009.7
20260904133031 75 115 0.0 5.0 0.00 0.00 0.00 75 1009.4
20260904131526 74 113 0.0 4.0 0.00 0.00 0.00 76 1009.1
20260904130024 75 106 0.0 1.0 0.00 0.00 0.00 75 1008.9
20260904124523 75 108 0.0 0.0 0.00 0.00 0.00 76 1008.7
20260904123021 75 105 0.0 0.0 0.00 0.00 0.00 76 1008.5
20260904121520 75 103 0.0 0.0 0.00 0.00 0.00 76 1008.3
20260904120020 75 103 0.0 0.0 0.00 0.00 0.00 77 1008.3
20260904114526 75 102 0.0 0.0 0.00 0.00 0.00 76 1008.2
20260904113033 75 103 0.0 0.0 0.00 0.00 0.00 75 1008.2
20260904111518 76 106 0.0 0.0 0.00 0.00 0.00 75 1008.2
20260904110018 76 125 0.0 0.0 0.00 0.00 0.00 74 1008.3
20260904104517 76 176 0.0 0.0 0.00 0.00 0.00 74 1008.2
20260904103016 76 176 0.0 0.0 0.00 0.00 0.00 74 1008.2
20260904101514 75 91 0.0 0.0 0.00 0.00 0.00 76 1008.2
20260904100012 75 110 0.0 0.0 0.00 0.00 0.00 76 1008.2
20260904094513 75 125 0.0 0.0 0.00 0.00 0.00 76 1008.1
20260904093012 75 127 0.0 0.0 0.00 0.00 0.00 76 1008.1
20260904091510 75 127 0.0 0.0 0.00 0.00 0.00 75 1008.0
20260904090010 75 127 0.0 0.0 0.00 0.00 0.00 74 1008.0
20260904084507 76 127 0.0 0.0 0.00 0.00 0.00 73 1008.0
20260904083006 76 131 0.0 0.0 0.00 0.00 0.00 73 1008.1
20260904081505 76 131 0.0 0.0 0.00 0.00 0.00 72 1008.1
20260904080005 76 131 0.0 0.0 0.00 0.00 0.00 72 1008.2
20260904074500 77 131 0.0 0.0 0.00 0.00 0.00 72 1008.1
20260904073106 77 131 0.0 0.0 0.00 0.00 0.00 70 1008.1
20260904071559 78 131 0.0 0.0 0.00 0.00 0.00 70 1008.1
20260904070106 78 103 0.0 0.0 0.00 0.00 0.00 70 1008.2
20260904064552 78 103 0.0 0.0 0.00 0.00 0.00 69 1008.2
20260904063056 78 103 0.0 0.0 0.00 0.00 0.00 68 1008.3
20260904061601 78 103 0.0 0.0 0.00 0.00 0.00 67 1008.3
20260904060051 79 103 0.0 0.0 0.00 0.00 0.00 66 1008.2
20260904054552 80 103 0.0 0.0 0.00 0.00 0.00 65 1008.0
20260904053050 80 133 0.0 2.0 0.00 0.00 0.00 65 1007.9
20260904051552 79 176 0.0 0.0 0.00 0.00 0.00 65 1007.9
20260904050049 80 174 0.0 0.0 0.00 0.00 0.00 64 1008.2
20260904044549 80 174 0.0 0.0 0.00 0.00 0.00 65 1008.3
20260904043058 80 178 0.0 3.0 0.00 0.00 0.00 64 1008.2
20260904041547 80 179 0.0 4.0 0.00 0.00 0.00 63 1008.4
20260904040047 81 176 2.0 7.0 0.00 0.00 0.00 63 1008.1
20260904034551 81 179 3.0 7.0 0.00 0.00 0.00 62 1008.1
20260904033046 82 179 3.0 7.0 0.00 0.00 0.00 62 1008.0
20260904031545 82 90 1.0 3.0 0.00 0.00 0.00 59 1007.7
20260904030045 82 175 0.0 2.0 0.00 0.00 0.00 59 1007.5
20260904024546 82 161 0.0 7.0 0.00 0.00 0.00 59 1007.1
20260904023042 83 108 1.0 10.0 0.00 0.00 0.00 58 1006.8
20260904021547 83 119 1.0 8.0 0.00 0.00 0.00 58 1006.7
20260904020041 83 105 2.0 10.0 0.00 0.00 0.00 58 1006.5
20260904014557 83 118 3.0 11.0 0.00 0.00 0.00 58 1006.2
20260904013040 84 107 2.0 10.0 0.00 0.00 0.00 56 1006.1
20260904011538 86 105 2.0 14.0 0.00 0.00 0.00 56 1005.9
20260904010041 87 115 4.0 14.0 0.00 0.00 0.00 54 1005.9
20260904004537 88 113 3.0 12.0 0.00 0.00 0.00 52 1005.9
20260904003036 89 122 4.0 9.0 0.00 0.00 0.00 50 1005.8
20260904001538 90 131 3.0 8.0 0.00 0.00 0.00 47 1005.6
20260904000113 89 131 2.0 11.0 0.00 0.00 0.00 51 1005.9
20260903234534 88 131 4.0 11.0 0.00 0.00 0.00 52 1005.9
20260903233034 90 127 5.0 13.0 0.00 0.00 0.00 47 1005.8
20260903231532 91 123 2.0 7.0 0.00 0.00 0.00 45 1005.8
20260903230035 91 129 0.0 4.0 0.00 0.00 0.00 45 1005.8
20260903224543 91 140 3.0 8.0 0.00 0.00 0.00 44 1005.8
20260903223034 93 131 1.0 8.0 0.00 0.00 0.00 42 1005.7
20260903221530 92 135 2.0 6.0 0.00 0.00 0.00 43 1005.8
20260903220027 93 124 1.0 7.0 0.00 0.00 0.00 43 1005.9
20260903214534 95 147 1.0 6.0 0.00 0.00 0.00 41 1006.2
20260903213034 95 105 1.0 6.0 0.00 0.00 0.00 40 1006.3
20260903211521 95 105 1.0 4.0 0.00 0.00 0.00 40 1006.5
20260903210020 94 117 1.0 7.0 0.00 0.00 0.00 41 1006.7
20260903204518 94 134 3.0 7.0 0.00 0.00 0.00 42 1006.9
20260903203015 93 153 0.0 5.0 0.00 0.00 0.00 43 1007.1
20260903201512 91 134 2.0 6.0 0.00 0.00 0.00 45 1007.5
20260903200010 91 134 2.0 6.0 0.00 0.00 0.00 45 1007.7
20260903194510 92 122 1.0 6.0 0.00 0.00 0.00 45 1007.9
20260903193004 91 131 0.0 4.0 0.00 0.00 0.00 46 1008.2
20260903191601 90 126 0.0 7.0 0.00 0.00 0.00 47 1008.4
20260903184556 89 131 1.0 7.0 0.00 0.00 0.00 49 1009.0